Regional Weather Roundup
Issued by NWS Albany, NY

Home | Current Version | Previous Version | Graphics & Text | Print | Product List | Glossary On
Versions: 1 2 3 4 5 6 7 8 9 10 11 12 13 14 15 16 17 18 19 20 21 22 23 24 25 26 27 28 29 30 31 32 33 34 35 36 37 38 39 40 41 42 43 44 45 46 47 48 49 50
000
ASUS41 KALY 110010
RWRALY

NEW YORK STATE HOURLY WEATHER ROUNDUP
NATIONAL WEATHER SERVICE ALBANY NY
800 PM EDT THU JUL 10 2014

NOTE: "FAIR" INDICATES FEW OR NO CLOUDS BELOW 12,000 FEET WITH NO
SIGNIFICANT WEATHER AND/OR NO OBSTRUCTIONS TO VISIBILITY.

NYZ032-033-038>043-046>054-057>066-NYZ062>081-110100-
EAST


CITY           SKY/WX    TMP DP  RH WIND       PRES   REMARKS
ALBANY         MOCLDY    74  49  41 NW9       30.13R
GLENS FALLS    PTCLDY    73  59  61 E6        30.11R
POUGHKEEPSIE   PTCLDY    77  61  57 NE3       30.10R
NEWBURGH       PTCLDY    79  61  53 E6        30.13R
MONTGOMERY     CLOUDY    76  62  62 CALM      30.12R
WHITE PLAINS   MOCLDY    74  63  68 CALM      30.11R
ISLIP          CLOUDY    75  61  61 SE6       30.09R
NEW YORK CITY  CLOUDY    77  60  55 S5        30.10R
CENTRAL PARK   MOCLDY    75  60  59 CALM      30.14R
$$

NYZ005>009-017-018-044>046-055-056-110100-
CENTRAL


CITY           SKY/WX    TMP DP  RH WIND       PRES   REMARKS
FULTON         CLEAR     68  48  48 CALM      30.17S
SYRACUSE       PTCLDY    70  45  40 N7        30.17R
ROME           CLEAR     68  48  48 NW7       30.18R
ELMIRA         CLEAR     71  55  56 N5        30.16R
BINGHAMTON     CLEAR     69  52  54 N6        30.19R
$$

NYZ026>034-041>043-110100-
NORTH


CITY           SKY/WX    TMP DP  RH WIND       PRES   REMARKS
WATERTOWN      CLEAR     67  49  52 W3        30.17R
FORT DRUM      NOT AVBL
MASSENA        CLEAR     68  50  52 W5        30.16R
SARANAC LAKE   CLEAR     64  48  56 VRB3      30.17R
PLATTSBURGH    CLEAR     69  49  48 N6        30.14R
$$

NYZ001>004-010>016-019>021-110100-
WEST


CITY           SKY/WX    TMP DP  RH WIND       PRES   REMARKS
NIAGARA FALLS  PTCLDY    70  50  49 NE8       30.16R
BUFFALO        PTCLDY    71  51  49 NE9       30.16R
DUNKIRK        MOCLDY    72  50  45 VRB5      30.15R
JAMESTOWN      PTCLDY    66  54  63 N7        30.18R
WELLSVILLE     CLEAR     68  51  54 NE8       30.21R
ROCHESTER      PTCLDY    69  43  38 NE6       30.17S
PENN YAN       CLEAR     69  49  48 VRB3      30.19R
$$

             KEY
       WCI = WIND CHILL INDEX
       VSB = VISIBILITY
       HX  = HEAT INDEX
$$


USA.gov is the U.S. government's official web portal to all federal, state and local government web resources and services.